Location: Prediera
(44.5333°N, 10.5500°E)
Time: 06:30:02
(UTC+00:00)

Daily predictions for brighter satellites

Satellite Brightness Start Highest point End
(mag) Time Altitude Azimuth Time Altitude Azimuth Time Altitude Azimuth
Cosmos 1025 Rocket 3.8 19:35:10 10° SSE 19:38:58 33° E 19:42:50 10° NNE
MOS 1 4.4 19:34:31 10° SSE 19:40:12 81° ENE 19:45:56 10° NNW
Cosmos 1709 Rocket 4.3 19:34:11 10° N 19:40:12 50° ENE 19:46:16 10° SSE
Okean 1 Rocket 3.5 19:37:11 10° NNW 19:41:39 66° W 19:46:02 10° S
Cosmos 1455 Rocket 3.5 19:38:30 10° N 19:42:40 43° ENE 19:46:48 10° SSE
Cosmos 1603 4.4 19:39:05 10° SW 19:44:42 61° WNW 19:50:25 10° NNE
Atlas Centaur 2 3.7 19:44:05 10° SW 19:46:06 12° SSW 19:47:58 10° S
SL-8 R/B 4.5 19:41:50 10° W 19:46:33 54° N 19:51:18 10° ENE
Meteor 2-5 Rocket 3.8 19:49:46 10° S 19:55:09 56° E 20:00:35 10° NNE
Cosmos 1607 4.0 19:49:16 10° SSW 19:55:23 60° ESE 20:01:29 10° NE
USA 245 4.2 19:51:18 10° SE 19:55:46 41° ENE 19:59:26 10° N
SPOT 1/Viking Rocket 3.6 19:50:47 10° SSE 19:55:55 88° ENE 20:01:06 10° NNW
Cosmos 1455 3.4 19:54:11 10° NNE 19:57:26 26° ENE 20:00:32 11° SE
Ariane Rocket 3.0 19:53:59 10° SSE 19:59:05 81° ENE 20:04:11 10° NNW
USA 267 4.0 19:55:48 10° ENE 20:01:21 29° SE 20:06:52 10° S
Cosmos 1954 Rocket 4.4 19:57:28 10° NNW 20:02:38 51° ENE 20:07:25 11° SE
S3M 4.4 20:01:46 10° SSW 20:07:56 69° W 20:14:05 10° N
SPOT 5 3.4 20:07:10 12° SE 20:10:57 38° ENE 20:15:00 10° N
Cosmos 1953 4.5 20:08:23 10° NW 20:11:37 25° W 20:14:51 10° SW
Meteor 2-10 Rocket 4.1 20:07:40 10° NNW 20:12:35 55° W 20:17:26 10° S
Cosmos 2369 Rocket 4.5 20:08:56 10° NW 20:12:47 19° W 20:16:39 10° SW
H-2A R/B 3.2 20:09:53 10° N 20:14:07 48° WNW 20:18:24 10° SW
Cosmos 1975 Rocket 3.2 20:10:51 10° S 20:15:18 82° W 20:19:46 10° N
Tiangong 1.5 20:12:55 10° W 20:15:59 46° S 20:18:23 15° ESE
CARTOSAT-1 3.5 20:12:33 10° SSE 20:16:52 86° ENE 20:21:12 10° NNW
Cosmos 2084 3.1 20:16:42 10° SW 20:20:32 86° SE 20:24:24 10° NE
IRAS Rocket 4.3 20:15:14 10° NNE 20:20:53 87° ESE 20:26:27 10° SSW
Cosmos 1656 4.5 20:17:02 10° NNW 20:22:08 38° ENE 20:26:30 14° ESE
USA 102 4.2 20:25:26 23° SE 20:28:21 75° NE 20:36:17 10° NNW
USA 276 1.8 20:25:52 10° WSW 20:28:52 86° SSE 20:31:53 10° ENE
Spot 2 Rocket 3.6 20:25:44 15° SSE 20:29:58 65° ENE 20:35:02 10° N
ATLAS 2AS CENTAUR R/B 2.8 20:25:27 10° NW 20:32:36 80° NE 20:37:59 17° SE
Meteor 1-24 Rocket 3.7 20:27:30 10° SSW 20:32:48 81° W 20:38:14 10° N
Cosmos 1544 Rocket 3.5 20:30:10 10° N 20:34:31 80° E 20:37:54 16° SSE
USA 234 4.4 20:29:52 10° E 20:35:51 39° NNE 20:41:49 10° NW
Cosmos 1452 Rocket 4.0 20:31:41 13° SSE 20:36:01 40° ESE 20:40:54 10° NE
Lacrosse 5 2.0 20:31:56 10° NW 20:37:03 73° NE 20:40:57 17° ESE
X-37B 0.1 20:36:17 10° WSW 20:39:05 79° SSE 20:41:44 11° E
Cosmos 1833 Rocket 3.6 20:36:05 17° SSE 20:39:12 28° ESE 20:43:53 10° NE
Terra 2.1 20:38:03 19° SE 20:41:21 55° ENE 20:46:01 10° N
Cosmos 2184 Rocket 4.2 20:41:22 10° N 20:47:28 59° E 20:51:50 20° SSE
Resurs 01 Rocket 3.7 20:44:42 10° SW 20:48:11 22° W 20:51:43 10° NW
Cosmos 724 4.2 20:45:33 10° SSW 20:51:21 85° ESE 20:57:11 10° NE
Helios 1A Rocket 3.0 20:51:30 20° S 20:54:13 77° WSW 20:58:19 10° NNW
CZ-4B R/B 4.1 20:54:36 10° NNW 20:56:14 14° WNW 20:57:52 10° WSW
Lacrosse 5 rocket 1.9 20:56:24 10° WNW 21:00:06 42° SW 21:01:56 25° S
Cosmos 1271 Rocket 3.4 20:57:54 10° NNW 21:01:47 52° W 21:04:25 19° SSW
Cosmos 2082 Rocket 3.7 21:01:01 17° ESE 21:02:09 18° E 21:05:51 10° ENE
NOSS 2-1 (E) 4.2 21:02:24 10° NW 21:07:12 80° SW 21:11:18 24° SSE
ERS-1 Rocket 3.2 21:03:40 20° S 21:07:12 68° WSW 21:12:14 10° NNW
RESURS DK-1 2.9 21:07:15 10° NNW 21:11:17 48° ENE 21:13:07 28° ESE
CZ-2C R/B 4.0 21:12:57 10° N 21:17:32 68° WNW 21:21:17 14° SSW
ARIANE 5 R/B 2.6 21:18:10 29° S 21:20:26 82° WSW 21:24:55 10° NNW
Cosmos 1741 Rocket 4.0 21:17:48 10° NNW 21:23:09 84° ENE 21:25:51 30° SSE
SL-8 R/B 4.0 21:24:42 10° WNW 21:29:30 66° NNE 21:33:28 15° E
GP-B 3.8 21:28:32 10° NNE 21:32:42 39° E 21:33:53 32° ESE
Cosmos 1455 4.3 21:29:49 10° NW 21:32:46 21° W 21:35:18 12° SW
Cosmos 2074 Rocket 4.4 21:29:48 10° NNW 21:35:57 59° W 21:40:08 21° SSW
Cosmos 2327 Rocket 4.5 21:30:48 10° N 21:37:12 83° E 21:40:33 30° SSE
COSMOS 2406 3.4 21:37:52 31° SSE 21:40:19 51° ESE 21:45:54 10° NE
ASTEX 1 3.5 21:35:54 10° NNE 21:40:53 61° E 21:42:45 36° SSE
USA 267 3.3 21:38:14 10° NE 21:44:49 85° NW 21:51:22 10° SW
Cosmos 2369 4.3 21:39:40 10° NNW 21:45:15 49° ENE 21:48:09 26° ESE
Cosmos 2228 3.7 21:46:23 10° NNW 21:50:28 46° W 21:52:05 30° SSW
Nadezhda 1 Rocket 4.1 21:47:09 21° SSW 21:51:20 69° W 21:57:24 10° N
Tiangong 3.5 21:49:56 10° WSW 21:50:36 14° WSW 21:50:36 14° WSW
Cosmos 962 Rocket 4.5 21:46:42 10° N 21:52:56 75° E 21:55:52 34° SSE
Cosmos 1850 Rocket 4.5 21:48:10 10° NNW 21:53:13 51° WSW 21:55:21 31° SSW
Cosmos 1980 Rocket 2.8 21:48:19 10° NNW 21:53:52 50° ENE 21:56:37 28° ESE
BREEZE-M DEB (TANK) 4.4 21:37:08 10° SW 21:54:03 67° SSE 21:58:28 10° ENE
Cosmos 1606 Rocket 3.7 21:51:17 10° NNW 21:55:35 66° W 21:56:56 41° SSW
Cosmos 1892 3.0 21:55:58 45° ESE 21:56:07 45° E 21:59:44 10° NNE
Cosmos 1697 Rocket 2.6 21:50:49 10° NNW 21:56:29 84° WSW 21:58:44 38° SSE
Meteor 1-11 4.2 21:57:30 37° SSE 21:59:43 68° E 22:05:17 10° NNE
Cosmos 2154 Rocket 4.5 21:54:43 10° NNW 22:00:45 54° W 22:04:13 25° SSW
Cosmos 2084 Rocket 4.2 21:57:37 10° NNW 22:01:21 42° NE 22:02:43 30° E
USA 276 4.0 22:02:05 10° WNW 22:04:48 30° N 22:07:31 10° NE
Cosmos 1328 4.4 22:04:04 35° SW 22:05:27 53° W 22:09:24 10° N
In-Cosmos 22 Rocket 4.5 22:06:27 38° SE 22:08:12 53° E 22:13:32 10° NNE
X-37B 2.4 22:11:46 10° W 22:12:57 22° W 22:12:57 22° W
Cosmos 1408 2.3 22:15:25 80° WSW 22:15:29 81° W 22:18:56 10° N
USA 234 3.2 22:14:25 26° SE 22:18:25 87° NE 22:25:01 10° NW
Terra 4.0 22:16:55 12° SW 22:19:27 17° W 22:22:36 10° NW
Lacrosse 5 3.3 22:15:42 10° WNW 22:19:34 22° WSW 22:20:08 22° SW
Cosmos 1726 Rocket 4.2 22:16:11 10° NNW 22:20:19 46° W 22:21:23 37° SW
ATLAS 2AS CENTAUR R/B 4.2 22:17:40 10° WNW 22:22:40 22° WSW 22:25:25 17° SW
Cosmos 1833 Rocket 3.6 22:17:42 11° SW 22:22:51 46° WNW 22:28:17 10° NNE
Cosmos 2322 Rocket 4.2 22:21:10 10° N 22:25:25 21° NE 22:29:39 10° E
Cosmos 1867 3.9 22:23:32 10° NNW 22:28:58 62° NE 22:31:17 34° ESE
ATLAS 5 CENTAUR R/B 2.8 22:30:25 23° E 22:30:25 23° E 22:32:33 10° ENE
Cosmos 2278 4.1 22:24:21 10° NNW 22:30:01 57° ENE 22:32:24 33° ESE
SL-8 Rocket 4.0 22:25:05 10° N 22:31:21 80° W 22:33:46 40° S
ALOS 2 2.7 22:32:45 54° SE 22:33:33 67° ENE 22:37:56 10° N
Cosmos 1812 Rocket 4.4 22:29:22 10° N 22:33:34 39° ENE 22:34:25 35° ESE
Cosmos 1302 Rocket 4.2 22:31:56 34° SW 22:34:12 68° WNW 22:39:24 10° NNE
Cosmos 2218 Rocket 4.0 22:37:01 10° N 22:43:26 78° W 22:45:53 40° S
Cosmos 2082 Rocket 2.4 22:42:49 31° SW 22:45:35 71° WNW 22:51:19 10° NNE
Cosmos 1602 Rocket 3.6 22:45:32 55° ESE 22:45:52 57° E 22:50:07 10° NNE
Cosmos 2366 rocket 4.1 22:40:53 10° NNW 22:47:11 73° W 22:49:34 40° SSW
RESURS DK-1 4.4 22:46:18 10° WNW 22:48:52 16° WSW 22:48:58 16° WSW
H-2A R/B 3.4 22:46:23 10° N 22:50:35 81° WNW 22:51:09 65° SW
Spot 4 4.3 22:52:43 43° SW 22:53:38 49° W 22:58:17 10° NNW
Cosmos 2058 Rocket 4.1 22:50:16 10° NNW 22:54:17 35° W 22:55:04 32° WSW
Cosmos 1825 2.5 22:58:50 53° W 22:58:58 53° WNW 23:02:39 10° N
Cosmos 2360 Rocket 4.0 23:00:22 10° N 23:05:06 26° NE 23:09:49 10° ESE
ERS-2 2.2 23:02:37 10° NNE 23:05:53 68° NE 23:05:53 68° NE
Cosmos 968 Rocket 4.2 23:01:39 10° NW 23:06:26 38° WSW 23:07:22 35° SW
Cosmos-2242 2.9 23:03:38 10° N 23:07:53 70° E 23:08:16 65° ESE
Cosmos 1626 Rocket 4.0 23:10:22 43° WSW 23:11:07 49° WNW 23:15:20 10° N
SL-8 R/B 4.1 23:07:21 10° WNW 23:11:22 45° WSW 23:11:22 45° WSW
Cosmos 2058 3.4 23:16:21 46° ESE 23:16:32 46° E 23:20:34 10° NNE
Cosmos 1869 4.2 23:13:36 10° NNW 23:17:08 36° W 23:17:08 36° W
Cosmos 1606 2.9 23:14:27 10° N 23:18:16 62° E 23:18:18 62° E
BREEZE-M DEB (TANK) 4.5 23:14:39 10° WNW 23:18:30 70° NNE 23:35:38 10° ESE
Cosmos 1934 Rocket 4.4 23:13:58 10° N 23:19:52 51° ENE 23:22:23 32° SE
ADEOS Rocket 3.7 23:20:28 37° SSW 23:23:16 58° W 23:30:46 10° NNW
Cosmos 1825 Rocket 3.6 23:22:58 59° ESE 23:23:18 62° E 23:27:34 10° NNE
Cosmos 1633 3.1 23:25:15 48° WNW 23:25:15 48° WNW 23:28:23 10° N
SL-16 R/B 2.2 23:25:20 10° NNW 23:31:03 77° ENE 23:33:07 41° SE
Cosmos 1980 Rocket 3.4 23:32:55 10° NW 23:37:32 26° WSW 23:38:21 25° WSW
SJ 16-02 1.4 23:34:00 10° NNW 23:38:27 70° ENE 23:39:13 56° SE
Gbstr 26 Del rocket 4.5 23:39:34 27° ESE 23:39:34 27° ESE 23:43:15 10° ENE
Cosmos 1486 Rocket 4.4 23:33:53 10° NNW 23:38:50 44° WSW 23:39:34 42° SW
USA 276 3.8 23:38:14 10° NW 23:40:59 31° N 23:43:44 10° ENE
Meteor 2-2 Rocket 4.4 23:37:42 10° N 23:43:44 81° E 23:45:55 42° SSE
Cosmos 1821 Rocket 4.3 23:37:50 10° NNW 23:43:54 55° W 23:45:54 39° SW
Cosmos 2219 Rocket 4.2 23:40:53 10° N 23:45:28 24° NE 23:50:02 10° ESE
Cosmos 1340 Rocket 2.7 23:48:44 69° ESE 23:48:48 69° E 23:52:44 10° NNE
CZ-2D R/B 3.9 23:47:54 10° NE 23:51:32 19° E 23:53:35 15° ESE
